SCP
0 0 0 0 0 0 0 0 0 0 0 0 0 0 0 0 0 1 1 1 1 1 1 1 1 1 1 1 1 1 1 1 1 1 1 1 1 1 1 1 1 1 1 1
0 0 0 0 0 0 0 0 0 0 0 0 0 0 0 0 0 1 1 1 1 1 1 1 1 1 1 1 1 1 1 1 1 1 1 1 1 1 1 1 1 1 1 1
0 0 0 0 0 0 0 0 0 0 0 0 0 0 0 0 0 1 1 1 1 1 1 1 1 1 1 1 1 1 1 1 1 1 1 1 1 1 1 1 1 1 1 1
0 0 0 0 0 0 0 0 0 0 0 0 0 0 0 0 0 1 1 1 1 1 1 1 1 1 1 1 1 1 1 1 1 1 1 1 1 1 1 1 1 1 1 1
0 0 0 0 0 0 0 0 0 0 0 0 0 0 0 0 0 1 1 1 1 1 1 1 1 1 1 1 1 1 1 1 1 1 1 1 1 1 1 1 1 1 1 1
0 0 0 0 0 0 0 0 0 0 0 0 0 0 0 0 1 1 1 1 1 1 1 1 1 1 1 1 1 1 1 1 1 1 1 1 1 1 1 1 1 1 1 1
0 0 0 0 0 0 0 0 0 0 0 0 0 0 1 1 1 1 1 1 1 1 1 1 1 1 1 1 1 1 1 1 1 1 1 1 1 1 1 1 1 1 1 1
0 0 0 0 0 0 0 0 0 0 0 1 1 1 1 1 1 1 1 1 1 1 1 1 1 1 1 1 1 1 1 1 1 1 1 1 1 1 1 1 1 1 1 1
0 0 0 0 0 0 0 1 1 1 1 1 1 1 1 1 1 1 1 1 1 1 1 1 1 1 1 1 1 1 1 1 1 1 1 1 1 1 1 1 1 1 1 1
0 0 0 0 0 0 0 1 1 1 1 1 1 1 1 1 1 1 1 1 1 1 1 1 1 1 1 1 1 1 1 1 1 1 1 1 1 1 1 1 1 1 1 0
0 0 0 0 0 0 0 0 1 1 1 1 1 1 1 1 1 0 1 1 1 1 1 1 1 1 1 1 1 0 0 0 0 1 1 1 1 1 0 0 0 0 0 0
0 0 0 0 0 0 0 0 1 1 1 1 1 1 0 0 0 0 0 1 1 1 1 1 1 1 0 0 0 0 0 0 0 0 0 1 1 0 0 0 0 0 0 0
0 0 0 0 0 0 0 0 1 1 1 1 1 0 0 0 0 0 0 1 1 1 1 1 1 0 0 0 0 0 0 0 0 0 0 0 0 0 0 0 0 0 0 0
0 0 0 0 0 0 0 0 1 1 1 1 0 0 0 0 0 0 0 1 1 1 1 1 0 0 0 0 0 0 0 0 0 0 0 0 0 0 0 0 0 0 0 0
0 0 0 0 0 0 0 0 0 0 0 0 0 0 0 0 0 1 1 1 1 1 1 0 0 0 0 0 0 0 0 0 0 0 0 0 0 0 0 0 0 0 0 0
0 0 0 0 0 0 0 0 0 0 0 0 0 0 0 0 0 0 1 1 1 0 0 0 0 0 0 0 0 0 0 0 0 0 0 0 0 0 0 0 0 0 0 0
0 0 0 0 0 0 0 0 0 0 0 0 0 0 0 0 0 0 0 0 0 0 0 0 0 0 0 0 0 0 0 0 0 0 0 0 0 0 0 0 0 0 0 0
0 0 0 0 0 0 0 0 0 0 0 0 0 0 0 0 0 0 0 0 0 0 0 0 0 0 0 0 0 0 0 0 0 0 0 0 0 0 0 0 0 0 0 0
0 0 0 0 0 0 0 0 0 0 0 0 0 0 0 0 0 0 0 0 0 0 0 0 0 0 0 0 0 0 0 0 0 0 0 0 0 0 0 0 0 0 0 0
0 0 0 0 0 0 0 0 0 0 0 0 0 0 0 0 0 0 0 0 0 0 0 0 0 0 0 0 0 0 0 0 0 0 0 0 0 0 0 0 0 0 0 0
0 0 0 0 0 0 0 0 0 0 0 0 0 0 0 0 0 0 0 0 0 0 0 0 0 0 0 0 0 0 0 0 0 0 0 0 0 0 0 0 0 0 0 0
0 0 0 0 0 0 0 0 0 0 0 0 0 0 0 0 0 0 0 0 0 0 0 0 0 0 0 0 0 0 0 0 0 0 0 0 0 0 0 0 0 0 0 0
0 0 0 0 0 0 0 0 0 0 0 0 0 0 0 0 0 0 0 0 0 0 0 0 0 0 0 0 0 0 0 0 0 0 0 0 0 0 0 0 0 0 0 0
0 0 0 0 0 0 0 0 0 0 0 0 0 0 0 0 0 0 0 0 0 0 0 0 0 0 0 0 0 0 0 0 0 0 0 0 0 0 0 0 0 0 0 0
0 0 0 0 0 0 0 0 0 0 0 0 0 0 0 0 0 0 0 0 0 0 0 0 0 0 0 0 0 0 0 0 0 0 0 0 0 0 0 0 0 0 0 0
0 0 0 0 0 0 0 0 0 0 0 0 0 0 0 0 0 0 0 0 0 0 0 0 0 0 0 0 0 0 0 0 0 0 0 0 0 0 0 0 0 0 0 0
0 0 0 0 0 0 0 0 0 0 0 0 0 0 0 0 0 0 0 0 0 0 0 0 0 0 0 0 0 0 0 0 0 0 0 0 0 0 0 0 0 0 0 0
Wind_Speed
11 8 8 10 11 11 13 12 12 10 8 5 4 3 2 2 3 3 3 3 3 4 4 3 4 3 4 3 3 3 4 4 3 3 3 3 3 3 3 3 3 3 3 3
11 10 10 12 12 12 13 12 12 11 8 2 3 3 3 3 4 3 3 3 3 3 3 3 3 3 3 3 3 3 3 3 2 2 3 2 2 2 2 3 3 3 3 4
11 10 11 14 11 11 10 9 10 10 5 3 4 4 4 4 4 4 3 3 3 3 3 2 2 2 3 3 3 4 4 3 3 2 2 2 2 2 2 3 3 3 4 4
9 9 15 5 3 7 8 8 7 6 3 5 4 3 3 3 3 3 3 3 3 3 3 2 2 2 2 2 2 2 2 2 2 3 2 2 2 3 3 3 3 4 4 5
9 12 12 6 4 6 8 8 5 5 5 4 4 5 5 3 2 3 3 3 2 2 3 2 2 2 2 2 2 2 2 1 1 1 2 2 3 3 3 3 4 4 4 5
9 12 12 4 3 2 7 8 4 5 6 6 6 6 3 4 3 3 3 3 2 2 3 3 2 1 1 1 1 1 1 1 2 2 2 3 3 3 3 3 4 4 4 4
12 12 8 4 3 4 9 2 2 4 4 6 6 2 4 4 4 3 3 3 3 3 3 2 2 1 1 1 0 1 1 1 1 2 2 3 3 3 3 3 3 4 4 4
10 12 6 5 4 4 3 3 1 3 4 4 3 2 4 4 4 4 4 4 3 3 2 2 1 1 1 1 1 1 1 1 1 2 3 2 2 3 3 3 4 4 4 4
5 2 4 1 2 3 3 2 2 3 3 4 4 4 4 4 4 4 3 3 3 3 3 2 1 1 1 1 1 1 1 1 2 2 2 2 3 3 3 3 4 3 4 4
4 2 0 1 2 2 3 3 3 2 3 4 4 4 4 4 4 4 3 3 3 3 2 2 1 1 1 1 1 1 1 2 2 2 2 2 3 3 3 3 3 4 4 4
5 2 2 2 1 1 2 1 1 1 2 3 3 3 3 3 3 3 3 3 2 2 2 1 1 0 1 1 1 1 2 2 3 2 2 2 2 2 3 3 3 4 5 5
4 1 3 2 2 2 1 1 0 0 1 1 2 3 3 3 3 3 3 3 2 2 2 1 1 1 1 2 2 3 3 3 3 3 2 3 2 1 1 1 1 2 4 5
3 2 3 2 2 1 1 0 0 0 1 1 1 2 2 2 2 2 2 3 2 2 2 2 2 1 1 2 2 3 3 3 3 3 3 3 3 3 2 2 5 5 5 5
2 2 3 2 1 1 0 1 1 1 1 1 1 2 2 2 2 3 3 3 3 2 2 2 2 2 2 2 2 3 4 2 3 3 3 3 3 3 3 4 4 3 3 5
3 4 3 2 1 2 2 1 1 1 1 1 1 1 1 2 2 2 2 2 2 2 2 2 2 2 2 3 3 4 4 3 3 3 3 3 4 4 4 5 5 4 4 2
3 3 3 4 3 3 3 2 2 1 1 1 1 1 1 1 1 2 2 2 3 3 2 2 3 2 3 3 4 4 3 3 5 5 4 4 4 4 4 5 5 4 4 4
4 4 5 5 4 4 3 3 2 1 1 1 1 1 1 2 2 2 2 2 2 2 2 3 3 2 3 3 5 4 3 3 5 6 4 4 4 4 5 5 5 4 4 2
4 5 5 4 3 3 3 2 2 2 2 1 1 2 2 2 2 1 2 1 2 2 3 2 2 3 3 4 4 4 4 4 4 4 4 4 4 4 5 5 5 5 5 3
2 2 2 3 3 3 2 2 1 1 1 2 2 2 2 2 2 2 2 2 3 3 2 2 2 4 4 3 4 4 5 5 4 4 4 4 5 5 5 5 5 5 5 4
0 1 1 2 2 2 2 2 1 1 1 1 1 1 2 2 2 2 3 3 3 2 2 2 4 4 4 3 5 5 5 5 5 4 4 4 5 4 4 5 5 5 4 4
1 2 2 2 2 2 2 2 2 1 1 1 2 2 2 2 3 3 4 3 2 2 2 3 4 3 3 3 5 5 4 4 4 4 4 4 4 4 5 5 4 4 4 4
1 1 1 1 1 1 1 1 1 2 2 2 2 2 2 3 3 4 4 3 2 1 3 3 3 2 2 4 4 4 3 3 3 3 4 4 4 4 4 4 4 4 4 4
1 1 1 0 0 1 1 1 1 1 2 2 3 3 3 3 3 3 3 2 2 2 3 3 2 1 2 4 4 4 3 4 4 4 4 4 4 4 4 4 4 5 4 4
1 1 1 1 1 2 2 1 1 1 2 3 3 3 3 3 3 3 2 1 1 2 3 1 1 2 4 4 3 3 3 3 4 4 4 4 4 4 4 4 4 5 4 5
1 1 1 1 2 2 2 2 2 2 2 2 2 2 2 2 3 3 2 2 1 3 3 1 3 4 4 3 2 2 3 3 3 4 4 4 4 4 4 4 4 4 4 4
1 1 0 1 1 2 2 2 1 1 2 2 2 2 2 2 3 2 2 3 3 3 3 2 2 3 3 3 3 3 3 2 3 3 4 4 4 4 4 4 5 4 4 4
2 2 2 2 1 1 2 2 2 2 2 2 3 3 2 2 3 3 3 2 2 2 2 2 2 3 3 3 3 3 3 2 3 3 3 3 3 3 4 4 4 4 4 4
Wind_Direction
256 262 251 242 233 228 239 257 266 272 264 243 216 205 164 142 138 135 135 134 135 138 136 144 150 160 169 170 169 174 178 183 191 200 203 213 224 228 231 238 241 241 251 255
241 241 244 248 241 235 239 249 256 263 260 249 183 175 169 173 164 155 147 143 141 140 142 151 157 163 162 158 151 153 164 174 176 191 200 206 216 227 233 236 243 240 243 249
243 235 245 243 236 236 239 247 257 256 254 187 189 189 189 186 174 162 152 144 145 145 143 141 149 154 160 157 160 171 181 190 189 201 210 212 219 217 229 236 241 249 253 254
247 235 244 247 232 242 245 243 248 258 231 200 201 181 180 177 170 160 152 133 123 133 131 135 137 133 141 152 165 181 192 199 205 218 225 227 231 234 237 239 241 246 251 257
243 241 244 218 200 219 236 238 230 230 208 185 173 174 175 167 159 155 143 123 112 107 107 106 114 122 138 154 166 187 198 212 225 225 227 234 244 252 255 253 251 250 253 259
239 250 250 228 145 236 241 231 202 215 201 188 191 220 171 150 159 152 134 121 114 109 103 106 107 120 147 168 183 220 234 240 251 240 237 247 256 263 264 259 260 265 269 267
240 247 249 82 124 204 234 260 150 206 205 202 213 275 110 138 151 149 132 122 118 110 98 94 100 108 98 63 1 339 308 285 282 269 252 254 259 264 270 269 276 278 279 276
238 243 232 96 178 237 341 4 223 218 213 213 206 135 139 150 153 151 141 133 126 113 100 91 98 121 109 61 20 5 331 297 289 280 275 274 272 274 277 278 268 266 268 269
265 287 49 6 299 345 317 288 255 229 215 200 189 170 160 162 162 155 152 144 142 135 123 111 100 98 90 49 21 1 337 311 300 292 281 283 272 270 263 262 273 283 286 286
249 201 7 281 281 296 303 302 281 252 219 200 191 184 172 166 159 155 158 159 159 156 147 131 122 94 50 24 17 341 297 291 285 285 283 280 278 283 288 297 298 298 299 299
242 235 217 211 288 338 355 339 311 266 221 203 192 186 177 168 166 168 166 169 172 173 172 162 154 105 341 329 312 293 285 285 287 284 287 279 281 316 307 335 335 312 310 307
264 272 274 292 321 307 306 315 328 210 177 166 172 176 182 175 172 175 177 176 184 189 187 192 209 222 294 293 287 276 265 267 278 285 285 278 267 254 110 231 228 267 283 291
310 307 305 300 285 274 261 309 51 104 157 162 157 169 183 175 173 176 187 200 205 210 205 217 233 242 268 279 272 269 274 277 275 280 281 278 283 281 277 237 215 218 231 246
263 254 247 240 261 251 171 103 95 97 130 149 162 173 177 173 184 188 196 209 208 210 214 223 240 253 271 271 267 263 262 249 261 264 271 274 276 279 281 285 283 275 228 210
247 261 260 244 210 193 176 153 151 151 120 130 158 174 174 180 198 202 194 195 196 210 224 236 247 263 277 271 267 265 264 259 263 270 266 268 272 276 277 280 282 283 286 252
246 247 229 214 211 209 202 198 194 192 176 168 176 173 175 185 196 201 195 200 210 225 241 253 260 267 270 270 264 257 256 268 269 268 267 267 270 277 282 281 283 287 288 296
230 232 226 223 221 221 223 225 221 211 193 189 185 180 183 189 199 210 223 223 223 237 247 253 264 278 278 277 277 275 271 244 237 257 266 277 283 286 287 288 291 293 293 314
241 244 238 233 231 225 220 221 218 208 206 192 187 199 208 213 231 243 245 236 241 245 258 268 273 271 264 266 275 278 271 266 261 266 269 271 280 282 283 285 289 289 290 280
241 246 227 212 216 212 205 200 192 195 199 195 212 225 238 243 243 246 247 246 249 247 265 295 283 265 260 262 275 262 265 265 263 262 264 261 260 267 271 276 282 288 292 294
333 109 126 153 177 180 178 170 172 182 195 194 209 221 240 252 255 252 247 250 265 298 292 286 267 268 262 253 266 259 261 264 264 261 262 267 269 272 273 278 284 291 295 297
86 99 111 120 139 154 157 166 176 180 176 191 217 230 239 249 252 254 257 262 267 280 272 255 255 263 266 275 258 260 260 262 266 267 264 266 274 278 280 281 284 289 292 295
114 109 95 91 123 131 140 175 182 187 201 215 234 242 245 248 250 253 255 272 274 258 257 258 265 312 320 290 268 273 277 280 279 277 272 271 274 279 284 287 285 285 286 289
167 169 205 237 151 188 193 207 212 219 228 236 244 249 256 266 269 270 269 265 269 277 277 288 351 44 291 267 272 277 282 287 288 284 281 281 284 286 286 287 289 288 288 291
227 245 252 255 222 209 218 228 234 236 239 243 245 256 266 266 263 265 285 204 228 257 277 354 124 236 254 261 274 282 286 286 284 284 284 283 283 282 284 286 290 294 292 289
209 219 225 237 231 219 216 228 223 219 231 245 249 243 259 276 284 290 287 271 257 259 266 187 192 235 253 265 272 278 278 282 291 297 293 290 286 283 283 286 289 288 288 288
197 213 236 282 300 285 263 250 255 265 270 268 268 273 280 277 273 270 262 254 254 257 262 254 226 226 248 263 262 265 272 272 266 271 285 289 285 286 291 297 296 297 297 294
198 198 207 227 240 261 277 275 271 274 281 286 289 291 285 284 286 286 282 272 258 251 252 256 257 255 263 267 267 267 271 277 277 281 283 282 286 291 296 298 297 297 295 292